This is the latest recevied weather packets stored in our database for station/object DL1GRJ-13. If no packets are shown the sender has not sent any weather packets the latest 10 day(s).
| Time | Temp. | Humidity | Pressure | Rain* | Wind** | Luminosity | Snow |
|---|---|---|---|---|---|---|---|
| 1777462231 | 19.44° C | 24% | 1020.7 hPa | - | - | - | - |
| 1777460431 | 18.33° C | 26% | 1020.7 hPa | - | - | - | - |
| 1777458631 | 17.22° C | 28% | 1020.7 hPa | - | - | - | - |
| 1777456831 | 16.11° C | 37% | 1020.7 hPa | - | - | - | - |
| 1777455031 | 14.44° C | 40% | 1020.7 hPa | - | - | - | - |
| 1777453231 | 12.78° C | 41% | 1020.7 hPa | - | - | - | - |
| 1777451430 | 11.67° C | 45% | 1020.7 hPa | - | - | - | - |
| 1777449630 | 10.56° C | 48% | 1020.7 hPa | - | - | - | - |
| 1777447830 | 9.44° C | 50% | 1020.6 hPa | - | - | - | - |
| 1777446030 | 8.33° C | 53% | 1020.6 hPa | - | - | - | - |
| 1777444230 | 7.78° C | 56% | 1020.5 hPa | - | - | - | - |
| 1777442430 | 7.22° C | 56% | 1020.1 hPa | - | - | - | - |
| 1777440630 | 7.22° C | 55% | 1020 hPa | - | - | - | - |
| 1777438830 | 7.22° C | 56% | 1020 hPa | - | - | - | - |
| 1777437029 | 7.22° C | 55% | 1019.7 hPa | - | - | - | - |
| 1777435229 | 7.78° C | 54% | 1019.6 hPa | - | - | - | - |
| 1777433429 | 7.78° C | 53% | 1019.5 hPa | - | - | - | - |
| 1777431629 | 7.78° C | 52% | 1019.3 hPa | - | - | - | - |
| 1777429829 | 7.78° C | 52% | 1019.4 hPa | - | - | - | - |
| 1777428029 | 8.33° C | 50% | 1019.3 hPa | - | - | - | - |
| 1777426229 | 8.33° C | 49% | 1019.1 hPa | - | - | - | - |
| 1777424428 | 8.89° C | 48% | 1019.1 hPa | - | - | - | - |
| 1777422628 | 8.89° C | 47% | 1019 hPa | - | - | - | - |
| 1777420828 | 8.89° C | 47% | 1019.2 hPa | - | - | - | - |
| 1777419028 | 9.44° C | 47% | 1019.3 hPa | - | - | - | - |
* Rain since midnight (hover to see other rain measurements)
** Current wind speed in m/s (hover to see current wind gust speed)